This demonstration page uses our WeatherBlox Daily Observations layout. Learn more.

Left ArrowRight Arrow

38.83388, -104.82136

Hourly Observations for April 27, 2022

Temp ( °F °C ) Dew Point ( °F °C ) Humidity (%) Winds ( mph kmh ) Pressure ( in mb ) Visibility ( mi km ) Precip ( " mm )
12:58 am 00:58 Clear 57 13.8 16 -8.8 20 20 WSW 3 6 29.68 1005 10 16 0.00 0.00
1:58 am 01:58 Clear 59 15.1 13 -10.6 16 16 SSW 3 6 29.67 1005 10 16 0.00 0.00
2:58 am 02:58 Clear 56 13.5 16 -9 20 20 Calm 29.66 1004 10 16 0.00 0.00
3:58 am 03:58 Clear 56 13.4 17 -8.5 21 21 WNW 3 6 29.65 1004 10 16 0.00 0.00
4:58 am 04:58 Clear 54 12 20 -6.9 26 26 NW 5 7 29.65 1004 10 16 0.00 0.00
6:58 am 06:58 Mostly Cloudy 58 14.5 18 -7.6 21 21 WNW 7 11 29.71 1006 10 16 0.00 0.00
7:58 am 07:58 Cloudy 61 15.9 18 -7.7 19 19 NW 5 7 29.74 1007 10 16 0.00 0.00
8:56 am 08:56 Sunny 62 16.9 18 -7.6 18 18 NW 5 7 29.75 1008 10 16 0.00 0.00
9:56 am 09:56 Mostly Sunny 66 19.1 23 -5.1 19 19 ESE 12 19 29.78 1008 10 16 0.00 0.00
10:56 am 10:56 Partly Cloudy 68 20.1 19 -7.4 15 15 SE 12 19 29.79 1009 10 16 0.00 0.00
11:56 am 11:56 Mostly Cloudy 68 20.1 20 -6.5 16 16 SSE 15 24 29.76 1008 10 16 0.00 0.00
12:50 pm 12:50 Partly Cloudy 68 20 21 -6 17 17 SW 12 19 29.76 1008 10 16 0.00 0.00
12:56 pm 12:56 Mostly Cloudy 68 20.2 22 -5.6 17 17 SE 12 19 29.75 1007 10 16 0.00 0.00
1:02 pm 13:02 Partly Cloudy 68 20 21 -6 17 17 S 14 22 29.74 1007 10 16 0.00 0.00
1:14 pm 13:14 Mostly Cloudy 66 19 23 -5 19 19 S 23 37 29.74 1007 10 16 0.00 0.00
1:36 pm 13:36 Mostly Cloudy 64 18 27 -3 24 24 SE 20 31 29.72 1007 10 16 0.00 0.00
1:56 pm 13:56 Partly Cloudy 68 20 25 -3.7 20 20 S 14 22 29.71 1006 10 16 0.00 0.00
2:56 pm 14:56 Cloudy 66 18.9 25 -3.9 21 21 SSE 10 17 29.70 1006 10 16 0.00 0.00
3:27 pm 15:27 Cloudy 64 18 25 -4 22 22 SSW 14 22 29.71 1006 10 16 0.00 0.00
3:38 pm 15:38 Cloudy with Light Rain 63 17 27 -3 25 25 SSE 8 13 29.74 1007 10 16 0.00 0.00
3:56 pm 15:56 Cloudy with Rain 55 12.9 36 2.2 48 48 WNW 7 11 29.70 1006 10 16 0.00 0.00
4:36 pm 16:36 Cloudy 55 13 36 2 47 47 WSW 9 15 29.66 1004 10 16 0.00 0.00
4:56 pm 16:56 Cloudy with Nearby Thunderstorms 56 13.2 35 1.8 46 46 N 10 17 29.65 1004 10 16 0.01 0.25
5:02 pm 17:02 Cloudy 57 14 36 2 44 44 NNW 15 24 29.65 1004 10 16 0.00 0.00
5:58 pm 17:58 Mostly Sunny 58 14.3 35 1.6 42 42 NW 8 13 29.65 1004 10 16 0.00 0.00
6:58 pm 18:58 Mostly Cloudy 59 14.8 32 0.2 37 37 WNW 15 24 29.65 1004 10 16 0.00 0.00
6:59 pm 18:59 Mostly Cloudy 59 15 32 0 36 36 WSW 17 28 29.66 1005 10 16 0.00 0.00
7:00 pm 19:00 Mostly Cloudy with Light Rain 59 15 30 -1 34 34 WNW 16 26 29.67 1005 10 16 0.00 0.00
7:04 pm 19:04 Mostly Cloudy with Light Rain 57 14 32 0 39 39 WNW 13 20 29.66 1004 10 16 0.00 0.00
7:12 pm 19:12 Cloudy 57 14 32 0 39 39 WNW 5 7 29.65 1004 10 16 0.00 0.00
7:58 pm 19:58 Cloudy 58 14.3 29 -1.4 34 34 NW 7 11 29.63 1004 10 16 0.00 0.00
8:58 pm 20:58 undefined N/A N/A N/A undefined N/A N/A N/A 0.00 0.00
9:58 pm 21:58 Partly Cloudy 59 15.2 22 -5.3 24 24 W 5 7 29.79 1009 10 16 0.00 0.00
10:58 pm 22:58 Clear 56 13.2 27 -2.7 33 33 Calm 29.79 1009 10 16 0.00 0.00
11:58 pm 23:58 Clear 54 12.1 25 -3.7 33 33 WNW 6 9 29.79 1009 10 16 0.00 0.00

Powered by AerisWeather